TimeCDT,TemperatureF,Dew PointF,Humidity,Sea Level PressureIn,VisibilityMPH,Wind Direction,Wind SpeedMPH,Gust SpeedMPH,PrecipitationIn,Events,Conditions,WindDirDegrees,DateUTC
12:53 AM,80.1,69.1,69,29.87,10.0,NE,5.8,-,N/A,,Clear,40,2013-07-28 05:53:00
1:53 AM,80.1,68.0,67,29.88,10.0,NE,8.1,-,N/A,,Clear,50,2013-07-28 06:53:00
2:53 AM,79.0,68.0,69,29.87,10.0,NE,6.9,-,N/A,,Overcast,40,2013-07-28 07:53:00
3:53 AM,79.0,69.1,72,29.86,10.0,NE,5.8,-,N/A,,Overcast,50,2013-07-28 08:53:00
4:14 AM,78.8,69.8,74,29.90,10.0,NE,4.6,-,N/A,,Overcast,40,2013-07-28 09:14:00
4:53 AM,79.0,69.1,72,29.85,10.0,ENE,6.9,-,N/A,,Overcast,60,2013-07-28 09:53:00
5:53 AM,79.0,70.0,74,29.86,10.0,ENE,5.8,-,N/A,,Overcast,60,2013-07-28 10:53:00
6:37 AM,78.8,69.8,74,29.90,10.0,ENE,4.6,-,N/A,,Overcast,60,2013-07-28 11:37:00
6:53 AM,79.0,70.0,74,29.87,10.0,ENE,5.8,-,N/A,,Overcast,60,2013-07-28 11:53:00
7:53 AM,80.1,71.1,74,29.88,8.0,ENE,6.9,-,N/A,,Overcast,70,2013-07-28 12:53:00
8:53 AM,81.0,73.0,77,29.90,8.0,ESE,5.8,-,N/A,,Overcast,110,2013-07-28 13:53:00
9:39 AM,82.4,73.4,74,29.94,7.0,SE,6.9,-,N/A,,Overcast,140,2013-07-28 14:39:00
9:53 AM,82.9,75.0,77,29.90,7.0,SSE,6.9,-,N/A,,Overcast,150,2013-07-28 14:53:00
10:43 AM,86.0,73.4,66,29.94,8.0,SSE,6.9,-,N/A,,Mostly Cloudy,150,2013-07-28 15:43:00
10:53 AM,86.0,73.9,67,29.90,8.0,South,5.8,-,N/A,,Mostly Cloudy,170,2013-07-28 15:53:00
11:53 AM,90.0,72.0,55,29.90,10.0,SSE,6.9,-,N/A,,Mostly Cloudy,150,2013-07-28 16:53:00
12:53 PM,93.9,70.0,46,29.88,10.0,ESE,11.5,-,N/A,,Clear,120,2013-07-28 17:53:00
1:53 PM,96.1,69.1,41,29.86,10.0,SE,8.1,-,N/A,,Partly Cloudy,140,2013-07-28 18:53:00
2:53 PM,97.0,69.1,40,29.84,10.0,ESE,12.7,17.3,N/A,,Mostly Cloudy,120,2013-07-28 19:53:00
3:53 PM,98.1,66.9,36,29.81,10.0,SE,10.4,-,N/A,,Partly Cloudy,130,2013-07-28 20:53:00
4:53 PM,100.0,66.0,33,29.79,10.0,SE,11.5,-,N/A,,Partly Cloudy,140,2013-07-28 21:53:00
5:53 PM,98.1,64.9,34,29.79,10.0,ESE,13.8,-,N/A,,Partly Cloudy,120,2013-07-28 22:53:00
6:53 PM,98.1,66.9,36,29.79,10.0,SE,13.8,-,N/A,,Clear,130,2013-07-28 23:53:00
7:53 PM,93.9,70.0,46,29.80,10.0,SE,12.7,-,N/A,,Clear,140,2013-07-29 00:53:00
8:53 PM,90.0,73.0,57,29.83,10.0,SE,10.4,19.6,N/A,,Clear,140,2013-07-29 01:53:00
9:53 PM,88.0,73.0,61,29.85,9.0,SE,15.0,20.7,N/A,,Clear,130,2013-07-29 02:53:00
10:53 PM,86.0,73.0,65,29.87,9.0,ESE,11.5,-,N/A,,Clear,120,2013-07-29 03:53:00
11:53 PM,82.9,73.9,74,29.88,9.0,SE,11.5,-,N/A,,Clear,130,2013-07-29 04:53:00